Regional Weather Roundup
Issued by NWS

Home | Current Version | Previous Version | Graphics & Text | Print | Product List | Glossary Off
Versions: 1 2 3 4 5 6 7 8 9 10 11 12 13 14 15 16 17 18 19 20 21 22 23 24 25 26 27 28 29 30 31 32 33 34 35 36 37 38 39 40 41 42 43 44 45 46 47 48 49 50

775
ASUS43 KDMX 240108
RWRIA

WEATHER ROUNDUP FOR IOWA
NATIONAL WEATHER SERVICE DES MOINES IA
800 PM CDT SAT JUL 23 2016

NOTE: "FAIR" INDICATES FEW OR NO CLOUDS BELOW 12,000 FEET WITH NO
SIGNIFICANT WEATHER AND/OR OBSTRUCTIONS TO VISIBILITY.

* - THESE STATIONS ARE NOT NWS STATIONS...THUS NOT UNDER NWS
QUALITY CONTROL.  THEY ALSO DO NOT REPORT WEATHER SUCH
AS PRECIPITATION OR FOG.

IAZ001>003-012>014-020>022-031>034-043>046-240200-
   NORTHWEST IOWA

CITY           SKY/WX    TMP DP  RH WIND       PRES   REMARKS
CARROLL *      CLOUDY    84  79  84 S6        29.79S HX  96
CHEROKEE *     CLOUDY    85  79  82 S7        29.77S HX  98
DENISON *      CLEAR     84  77  79 S8        29.77S HX  94
LE MARS *      CLOUDY    86  77  74 S10       29.76S HX  97
SHELDON *      CLEAR     84  79  84 S8        29.76S HX  96
SIOUX CITY     CLOUDY    89  77  67 SE8       29.74S HX 101
SPENCER        CLEAR     84  76  76 S10       29.78R HX  93
STORM LAKE *     N/A     82  79  89 S12       29.79F HX  93
$$

IAZ055>058-069>071-079>083-090>094-240200-
   SOUTHWEST IOWA

CITY           SKY/WX    TMP DP  RH WIND       PRES   REMARKS
ATLANTIC *     CLEAR     86  79  79 S10       29.79S HX  99
CLARINDA *       N/A     84  77  79 MISG      29.82S HX  94
COUNCIL BLFS * CLEAR     86  77  74 S8G15     29.78F HX  97
CRESTON *      PTCLDY    84  77  79 S12       29.84F HX  94
HARLAN  *      CLEAR     86  79  79 S9        29.82S HX  99
LAMONI         CLOUDY    85  77  77 S10       29.84F HX  95
RED OAK *      CLEAR     86  77  74 S10       29.79S HX  97
SHENANDOAH *   PTCLDY    86  79  79 S14G22    29.79S HX  99
$$

IAZ047>049-059>061-072>074-084-240200-
   CENTRAL IOWA

CITY           SKY/WX    TMP DP  RH WIND       PRES   REMARKS
AMES           CLEAR     85  80  85 S6        29.80F HX  99
ANKENY *         N/A    N/A N/A N/A MISG        N/A
BOONE *        CLEAR     86  79  79 S6        29.80F HX  99
CHARITON *       N/A    N/A N/A N/A MISG        N/A
DES MOINES     PTCLDY    88  76  67 S7        29.80F HX  99
GRINNELL*      CLEAR     86  78  77 S6        29.84S HX  98
KNOXVILLE *    CLEAR     86  77  74 S7        29.81S HX  97
MARSHALLTOWN   CLEAR     84  82  94 E7        29.81F HX 100
NEWTON *       CLEAR     86  81  84 S7        29.81F HX 102
PELLA *        CLEAR     86  78  75 S5        29.83S HX  98
PERRY *          N/A     86  81  85 S7        29.80F HX 101
$$

IAZ004>006-015-016-023>025-035-036-240200-
   NORTH CENTRAL IOWA

CITY           SKY/WX    TMP DP  RH WIND       PRES   REMARKS
ALGONA *       CLOUDY    84  79  84 S12       29.77F HX  96
ESTHERVILLE    CLEAR     82  78  88 S7        29.77S HX  91
FORT DODGE *   CLOUDY    84  79  84 S6        29.80S HX  96
MASON CITY     CLEAR     78  74  87 SE9       29.80F HX  81
FOREST CITY *    N/A     77  75  94 SE8       29.79F
IOWA FALLS *     N/A     84  80  88 S8        29.81F HX  98
$$

IAZ007>011-017>019-026>030-037>042-050>054-066-240200-
   NORTHEAST IOWA

CITY           SKY/WX    TMP DP  RH WIND       PRES   REMARKS
CEDAR RAPIDS   PTCLDY    77  76  96 SE7       29.84F
CHARLES CITY * CLOUDY    75  73  94 SE9       29.81F
CLINTON *      TSTM      73  70  90 S16       29.89F FOG
DECORAH *      CLOUDY    72  72 100 SE13G20   29.83F
DUBUQUE        CLOUDY    71  70  96 SE9       29.90F
MONTICELLO *   CLOUDY    73  70  88 SE8       29.86F
OELWEIN *      PTCLDY    75  72  88 SE13      29.84F
WATERLOO       CLOUDY    77  71  82 SE12      29.80F
$$

IAZ064-065-067-068-078-240200-
   EAST CENTRAL IOWA

CITY           SKY/WX    TMP DP  RH WIND       PRES   REMARKS
DAVENPORT      CLOUDY    76  70  82 NE15      29.89S THUNDER
IOWA CITY      CLOUDY    82  76  81 E3        29.86S HX  89
MT. PLEASANT * CLEAR     87  82  83 S6        29.86F HX 105
MUSCATINE *    CLOUDY    88  81  79 S8        29.84F HX 105
QUAD CITIES    CLOUDY    86  79  79 E7        29.87F HX  99
$$

IAZ062-063-075>077-085>089-095>099-240200-
   SOUTHEAST IOWA

CITY           SKY/WX    TMP DP  RH WIND       PRES   REMARKS
BURLINGTON     PTCLDY    86  81  85 S5        29.87R HX 102
FAIRFIELD *    PTCLDY    88  79  74 S7        29.85S HX 102
KEOKUK *       PTCLDY    88  81  79 S7        29.86R HX 105
CENTERVILLE *    N/A     86  77  74 S7        29.87S HX  97
OTTUMWA        CLEAR     85  77  77 S6        29.84R HX  95
WASHINGTON *   PTCLDY    86  81  84 S9        29.86S HX 102
$$

ABBREVIATIONS USED IN REMARKS
   TC - TEMPERATURES IN CELSIUS
  WCI - WIND CHILL INDEX
   HX - HEAT INDEX
  VSB - VISIBILITY
$$





USA.gov is the U.S. government's official web portal to all federal, state and local government web resources and services.